Find OneWeb SL0595

NORAD ID: 54661 Int'l Des: 2022-166 Owner: ONEWEBN Country: UK Constellation: oneweb operational
又名: ONEWEB-0595 spacetrack, celestrak
LEOCIRCULARPOLARONEWEB_TYPE

当前视图

正在加载3D地球...

About OneWeb SL0595

OneWeb SL0595 (NORAD 54661) is a oneweb constellation satellite launched Dec 8, 2022 by ONEWEBN of UK. It operates in LEO, CIRCULAR, POLAR, ONEWEB_TYPE orbit with a mass of 148.00 kg.

即将过境

Passes for default location (London). Set your location on the main map for personalized predictions.

高度历史

Loading altitude history...

两行轨道根数

1 54661U 22166V 26264.23874981 .00000033 00000-0 48174-4 0 9995
2 54661 87.9290 224.8604 0001813 77.6586 282.4751 13.21826756184224
Epoch: Sep 21, 2026 • Age: 9 hours

当前状态

高度 1200.8 km
远地点 / 近地点 N/A
速度 7.25 km/s
星下点 -56.84°S, 3.24°E
发射日期 Dec 8, 2022
运行时间 3.7 years
类型 internet

技术详情

分类 Payload
质量 148.00 kg
干质量 140.00 kg
长度 1.30 m
直径 1.00 m
跨度 5.00 m
形状 ? Trapezoid+2 pan
制造商 ONEWUS
平台类型 ARROW
阶段状态 In Orbit
所有者/国家 ONEWEBN/UK

Most Searched